Location: Arbon
(43.0005°N, 0.7472°E)
Time: 21:32:04
(UTC+00:00)

Explorer 7 - Pass Details

Date: 27 November 2020
Orbit: 484 x 678 km, 50.3° (Epoch: 25 January)

Event Time Altitude Azimuth Distance (km) Brightness Sun altitude
Rises 07:47:06 0° 300° (WNW) 2,708 9.7 5.7°
Reaches altitude 10° 07:49:23 10° 301° (WNW) 1,782 8.8 6.1°
Maximum altitude 07:53:25 82° 29° (NNE) 520 6.8 6.7°
Drops below altitude 10° 07:57:14 10° 118° (ESE) 1,690 11.7 7.2°
Sets 07:59:22 0° 119° (ESE) 2,555 12.4 7.5°
